Location: ??????????
(48.4699°N, 37.9573°E)
Time: 20:25:44
(UTC+00:00)

Cosmos 2344 - Pass Details

Date: 20 January 2021
Orbit: 1243 x 2999 km, 63.3° (Epoch: 01 March)

Event Time Altitude Azimuth Distance (km) Brightness Sun altitude
Rises 16:31:42 0° 316° (NW) 4,469 7.0 -23.4°
Reaches altitude 10° 16:34:19 10° 319° (NW) 3,617 6.4 -23.8°
Maximum altitude 16:43:18 71° 44° (NE) 1,890 4.2 -25.3°
Enters shadow 16:49:29 33° 120° (ESE) 3,058 5.1 -26.3°
